Regional Weather Roundup
Issued by NWS Sterling, VA

Home | Current Version | Previous Version | Graphics & Text | Print | Product List | Glossary On
Versions: 1 2 3 4 5 6 7 8 9 10 11 12 13 14 15 16 17 18 19 20 21 22 23 24 25 26 27 28 29 30 31 32 33 34 35 36 37 38 39 40 41 42 43 44 45 46 47 48 49 50
000
ASUS41 KLWX 280710
RWRLWX

REGIONAL WEATHER ROUNDUP
NATIONAL WEATHER SERVICE BALTIMORE MD/WASHINGTON DC
300 AM EDT SAT MAR 28 2015

Note: "FAIR" indicates few or no clouds below 12,000 feet
with no significant weather and/or obstructions to visibility.
 TC=TEMPERATURE CELSIUS

 * =Non NWS site. Station does not report precipitation (e.g. rain,
    snow, etc.), thunder, or fog.

DCZ001-MDZ009-015-VAZ040>042-051-053>054-280800-
WASHINGTON METRO

CITY           SKY/WX    TMP DP  RH WIND       PRES   REMARKS
WASHINGTON NAT CLOUDY    39  22  50 NW13      29.88R
DULLES         MOCLDY    33  18  53 NW13      29.88S WCI  24
ANDREWS AFB    CLOUDY    36  23  57 NW15      29.85R WCI  27
FT BELVOIR     CLOUDY    37  22  54 NW15G25   29.88R WCI  28
QUANTICO       CLOUDY    38  23  55 N18G37    29.89R WCI  28
COLLEGE PARK*  CLEAR     36  23  60 NW7       29.86R
LEESBURG*      PTCLDY    32  23  69 NW14      29.90S WCI  22
MANASSAS*      CLOUDY    36  25  64 NW14      29.90R WCI  27
GAITHERSBURG*  PTCLDY    32  18  55 NW7       29.90R

$$

MDZ006>007-011-014-280800-
BALTIMORE METRO

CITY           SKY/WX    TMP DP  RH WIND       PRES   REMARKS
BWI AIRPORT    MOCLDY    36  19  50 NW9G21    29.84R WCI  29
MD SCIENCE CTR   N/A     38  19  46 MISG      29.84R
MARTIN STATE   CLOUDY    37  23  56 NW12G20   29.85R
ANNAPOLIS      MOCLDY    39  22  50 NW14      29.84R

$$

MDZ012-015-019>023-280800-
MARYLAND EASTERN SHORE

CITY           SKY/WX    TMP DP  RH WIND       PRES   REMARKS
OCEAN CITY     CLOUDY    39  36  89 N6        29.75F
SALISBURY      CLOUDY    39  33  79 N10       29.77S
BAY BRIDGE AP*   N/A     37  23  56 NW16G25   29.83R WCI  28
CAMBRIDGE*     PTCLDY    43  27  52 NW15G21   29.80R
EASTON*        MOCLDY    40  28  62 N10       29.85R

$$

MDZ017>025-280800-
SOUTHERN MARYLAND

CITY           SKY/WX    TMP DP  RH WIND       PRES   REMARKS
PATUXENT RIVER CLOUDY    40  27  59 NW17      29.82R
ST INIGOES     CLOUDY    41  27  57 NW6       29.81R
LEONARDTOWN*   CLOUDY    37  27  65 NW5       29.84R

$$

MDZ003>005-280800-
NORTH CENTRAL MARYLAND

CITY           SKY/WX    TMP DP  RH WIND       PRES   REMARKS
FREDERICK*     CLOUDY    34  14  44 N12       29.91S WCI  25
HAGERSTOWN APT CLOUDY    31  17  56 NW14      29.87S WCI  21
WESTMINSTER*   PTCLDY    30  18  59 NW7       29.84S

$$

MDZ501>502-280800-
WESTERN MARYLAND

CITY           SKY/WX    TMP DP  RH WIND       PRES   REMARKS
OAKLAND*       CLOUDY    16 N/A N/A NW10G18   29.81S WCI   3
CUMBERLAND*    CLEAR     28  14  54 NW12G26   29.96S WCI  18

$$

VAZ025>031-280800-
SHENANDOAH VALLEY

CITY           SKY/WX    TMP DP  RH WIND       PRES   REMARKS
WINCHESTER*    MOCLDY    32  14  47 NW9       29.89S WCI  24
FRONT ROYAL*   CLOUDY    32  18  55 NW7       29.88S
LURAY*         CLOUDY    34  23  64 N12G20    29.89R WCI  25
NEW MARKET*    CLOUDY    31  18  57 N9        29.89R WCI  23
STAUNTON*      CLOUDY    33  22  65 CALM      29.87S
WAYNESBORO*    PTSUNNY   32  17  55 NW7       29.84S

$$

WVZ021-048>050-054>055-280800-
EASTERN WEST VIRGINIA PANHANDLE

CITY           SKY/WX    TMP DP  RH WIND       PRES   REMARKS
MARTINSBURG    PTCLDY    32  16  51 NW14      29.90S WCI  22
PETERSBURG*    CLOUDY    29  13  51 N7        29.93F

$$

VAZ036>039-050-280800-
CENTRAL FOOTHILLS

CITY           SKY/WX    TMP DP  RH WIND       PRES   REMARKS
CHARLOTTESVILL CLOUDY    36  22  56 N8        29.86S
CULPEPER*      MOCLDY    36  21  55 N13       29.89S WCI  27
ORANGE*        CLOUDY    36  27  69 NW9       29.88S WCI  29
GORDONSVILLE*  CLOUDY    37  23  57 N6        29.86S
WARRENTON*     MOCLDY    35  26  69 N13G23    29.89R WCI  26

$$

VAZ055>057-280800-
NORTH AND CENTRAL PIEDMONT

CITY           SKY/WX    TMP DP  RH WIND       PRES   REMARKS
FREDERICKSBRG* CLOUDY    39  26  60 N9G24     29.87S
STAFFORD*      CLOUDY    36  22  58 NW15G24   29.92R WCI  26

$$

NCZ024-NYZ072-PAZ021-071-VAZ022-071-280800-
OTHER REGIONAL OBSERVATIONS

CITY           SKY/WX    TMP DP  RH WIND       PRES   REMARKS
NEW YORK CITY  CLOUDY    38  23  55 N13G22    29.79F
PHILADELPHIA   CLOUDY    40  24  53 N15       29.80F
PITTSBURGH     PTCLDY    18   7  62 NW16      30.00S WCI   3
ROANOKE        CLOUDY    34  20  56 N14       29.90S WCI  25
RICHMOND       CLOUDY    41  26  55 N16       29.83S
RALEIGH        CLOUDY    42  38  85 N5        29.86R

$$

ANZ530>537-280800-
MARINE OBSERVATIONS

STATION/POSITION TIME  TEMP    WIND        PRES
                       AIR SEA DIR/SP/G
                 (UTC) (F)     (DEG/KT/KT) (MB)
THOMAS PT LIGHT  0700                        N/A
BALT KEY BRIDGE  0600   39     320/ 17/ 20 1009.9R
COVE POINT       0600   41     350/ 23/ 25 1008.8F
LEWISETTA        0600   42 46              1009.3R
SOLOMONS ISLAND  0600      43                N/A
PINEY POINT      0600          360/ 13/ 15   N/A

$$




USA.gov is the U.S. government's official web portal to all federal, state and local government web resources and services.